• In Uzbekistan
  • List of Countries
  • For 7 days
  • Water Temperature
  • Satellite Maps
  • Weather Map
  • Weather Widgets
  • user-avatar
    Login

    Hourly Weather Newcastle

    Today, 27 February, Monday

    Time Temperature Precipitation Wind Pressure Humidity
    00:00 +18°C° 0.8 mm 4 mps 765 mmHg 95%
    01:00 +18°C° 0.8 mm 4 mps 765 mmHg 96%
    02:00 +18°C° 1.1 mm 4 mps 765 mmHg 96%
    03:00 +18°C° 1.1 mm 4 mps 764 mmHg 96%
    04:00 +18°C° 0 mm 3 mps 764 mmHg 97%
    05:00 +19°C° 0.9 mm 3 mps 765 mmHg 95%
    06:00 +19°C° 0.9 mm 3 mps 765 mmHg 93%
    07:00 +20°C° 0.9 mm 3 mps 765 mmHg 92%
    08:00 +22°C° 0.8 mm 4 mps 765 mmHg 84%
    09:00 +23°C° 0.8 mm 4 mps 765 mmHg 77%
    10:00 +26°C° 0 mm 5 mps 766 mmHg 72%
    11:00 +27°C° 0.5 mm 5 mps 765 mmHg 66%
    12:00 +27°C° 0.5 mm 5 mps 765 mmHg 59%
    13:00 +28°C° 0.5 mm 5 mps 765 mmHg 53%
    14:00 +28°C° 0.3 mm 5 mps 765 mmHg 55%
    15:00 +27°C° 0.3 mm 5 mps 764 mmHg 58%
    16:00 +27°C° 0 mm 5 mps 764 mmHg 59%
    17:00 +25°C° 0.5 mm 4 mps 765 mmHg 69%
    18:00 +23°C° 0.5 mm 4 mps 765 mmHg 78%
    19:00 +21°C° 0.5 mm 3 mps 765 mmHg 88%
    20:00 +20°C° 0.4 mm 3 mps 765 mmHg 91%
    21:00 +20°C° 0.4 mm 3 mps 765 mmHg 93%
    22:00 +19°C° 0 mm 2 mps 766 mmHg 96%
    23:00 +19°C° 0.6 mm 2 mps 765 mmHg 96%

    Tomorrow, 28 February, Tuesday

    Time Temperature Precipitation Wind Pressure Humidity
    00:00 +19°C° 0.6 mm 2 mps 765 mmHg 96%
    01:00 +19°C° 0.6 mm 2 mps 765 mmHg 96%
    02:00 +19°C° 0.4 mm 2 mps 765 mmHg 96%
    03:00 +18°C° 0.4 mm 2 mps 765 mmHg 97%
    04:00 +19°C° 0.4 mm 1 mps 764 mmHg 97%
    05:00 +20°C° 0.5 mm 1 mps 765 mmHg 95%
    06:00 +21°C° 0.5 mm 1 mps 765 mmHg 93%
    07:00 +22°C° 0.5 mm 1 mps 765 mmHg 91%
    08:00 +24°C° 0.4 mm 2 mps 765 mmHg 80%
    09:00 +26°C° 0.4 mm 2 mps 765 mmHg 68%
    10:00 +28°C° 0.4 mm 2 mps 765 mmHg 57%
    11:00 +29°C° 0.2 mm 3 mps 765 mmHg 55%
    12:00 +30°C° 0.2 mm 3 mps 764 mmHg 52%
    13:00 +30°C° 0.2 mm 4 mps 764 mmHg 50%
    14:00 +30°C° 0.1 mm 4 mps 764 mmHg 52%
    15:00 +29°C° 0.1 mm 4 mps 764 mmHg 54%
    16:00 +29°C° 0.1 mm 4 mps 763 mmHg 56%
    17:00 +27°C° 0.2 mm 4 mps 764 mmHg 65%
    18:00 +25°C° 0.2 mm 3 mps 764 mmHg 75%
    19:00 +22°C° 0.2 mm 3 mps 764 mmHg 84%
    20:00 +22°C° 0.3 mm 3 mps 764 mmHg 88%
    21:00 +21°C° 0.3 mm 3 mps 764 mmHg 92%
    22:00 +20°C° 0.3 mm 3 mps 765 mmHg 97%
    23:00 +20°C° 0.8 mm 3 mps 764 mmHg 97%

    Day after tomorrow, 1 March, Wednesday

    Time Temperature Precipitation Wind Pressure Humidity
    00:00 +20°C° 0.8 mm 3 mps 764 mmHg 97%
    01:00 +20°C° 0.8 mm 2 mps 764 mmHg 98%
    02:00 +20°C° 0.5 mm 2 mps 763 mmHg 98%
    03:00 +20°C° 0.5 mm 2 mps 763 mmHg 98%
    04:00 +21°C° 0.5 mm 1 mps 763 mmHg 98%
    05:00 +21°C° 0.1 mm 1 mps 763 mmHg 97%
    06:00 +22°C° 0.1 mm 1 mps 764 mmHg 96%
    07:00 +22°C° 0.1 mm 1 mps 764 mmHg 94%
    08:00 +25°C° 0.2 mm 1 mps 764 mmHg 81%
    09:00 +27°C° 0.2 mm 1 mps 764 mmHg 67%
    10:00 +30°C° 0.2 mm 1 mps 764 mmHg 53%
    11:00 +30°C° 0.1 mm 1 mps 764 mmHg 52%
    12:00 +30°C° 0.1 mm 2 mps 763 mmHg 50%
    13:00 +31°C° 0.1 mm 3 mps 763 mmHg 49%
    14:00 +30°C° 0.2 mm 3 mps 762 mmHg 52%
    15:00 +30°C° 0.2 mm 3 mps 762 mmHg 55%
    16:00 +29°C° 0.2 mm 3 mps 762 mmHg 57%
    17:00 +27°C° 0.1 mm 3 mps 762 mmHg 67%
    18:00 +25°C° 0.1 mm 2 mps 762 mmHg 76%
    19:00 +23°C° 0.1 mm 2 mps 763 mmHg 86%
    20:00 +23°C° 0.2 mm 2 mps 763 mmHg 89%
    21:00 +22°C° 0.2 mm 1 mps 763 mmHg 93%
    22:00 +21°C° 0.2 mm 1 mps 763 mmHg 97%
    23:00 +21°C° 0.1 mm 1 mps 763 mmHg 97%

    2 March, Thursday

    Time Temperature Precipitation Wind Pressure Humidity
    00:00 +21°C° 0.1 mm 1 mps 763 mmHg 96%
    01:00 +21°C° 0.1 mm 1 mps 763 mmHg 96%
    02:00 +20°C° 0 mm 1 mps 762 mmHg 97%
    03:00 +20°C° 0 mm 1 mps 762 mmHg 97%
    04:00 +20°C° 0 mm 1 mps 762 mmHg 98%
    05:00 +21°C° 0 mm 1 mps 762 mmHg 95%
    06:00 +22°C° 0 mm 1 mps 763 mmHg 92%
    07:00 +23°C° 0 mm 1 mps 763 mmHg 90%
    08:00 +25°C° 0.1 mm 1 mps 763 mmHg 78%
    09:00 +28°C° 0.1 mm 1 mps 763 mmHg 67%
    10:00 +30°C° 0.1 mm 2 mps 763 mmHg 55%
    11:00 +30°C° 0.2 mm 2 mps 762 mmHg 57%
    12:00 +30°C° 0.2 mm 2 mps 761 mmHg 59%
    13:00 +30°C° 0.2 mm 3 mps 761 mmHg 60%
    14:00 +30°C° 0.1 mm 3 mps 761 mmHg 58%
    15:00 +30°C° 0.1 mm 3 mps 760 mmHg 57%
    16:00 +30°C° 0.1 mm 3 mps 760 mmHg 55%
    17:00 +28°C° 0 mm 3 mps 760 mmHg 65%
    18:00 +26°C° 0 mm 2 mps 761 mmHg 76%
    19:00 +24°C° 0 mm 2 mps 761 mmHg 86%
    20:00 +23°C° 0 mm 2 mps 761 mmHg 90%
    21:00 +22°C° 0 mm 1 mps 762 mmHg 94%
    22:00 +21°C° 0 mm 1 mps 762 mmHg 98%
    23:00 +20°C° 0.1 mm 1 mps 761 mmHg 98%

    3 March, Friday

    Time Temperature Precipitation Wind Pressure Humidity
    00:00 +20°C° 0.1 mm 1 mps 761 mmHg 98%
    01:00 +20°C° 0.1 mm 1 mps 761 mmHg 98%
    02:00 +20°C° 0 mm 1 mps 760 mmHg 98%
    03:00 +20°C° 0 mm 1 mps 760 mmHg 99%
    04:00 +19°C° 0 mm 2 mps 760 mmHg 99%
    05:00 +20°C° 0 mm 2 mps 761 mmHg 97%
    06:00 +21°C° 0 mm 2 mps 761 mmHg 95%
    07:00 +22°C° 0 mm 3 mps 761 mmHg 94%
    08:00 +24°C° 0.5 mm 3 mps 761 mmHg 86%
    09:00 +26°C° 0.5 mm 3 mps 761 mmHg 79%
    10:00 +27°C° 0.5 mm 4 mps 761 mmHg 71%
    11:00 +28°C° 0.5 mm 4 mps 761 mmHg 69%
    12:00 +28°C° 0.5 mm 4 mps 761 mmHg 67%
    13:00 +29°C° 0.5 mm 4 mps 760 mmHg 65%
    14:00 +29°C° 0.1 mm 4 mps 760 mmHg 63%
    15:00 +28°C° 0.1 mm 4 mps 760 mmHg 62%
    16:00 +28°C° 0.1 mm 4 mps 759 mmHg 61%
    17:00 +27°C° 0.1 mm 4 mps 760 mmHg 70%
    18:00 +25°C° 0.1 mm 3 mps 760 mmHg 79%
    19:00 +23°C° 0.1 mm 2 mps 760 mmHg 88%
    20:00 +21°C° 0.5 mm 2 mps 760 mmHg 90%
    21:00 +21°C° 0.5 mm 2 mps 761 mmHg 92%
    22:00 +21°C° 0.5 mm 2 mps 761 mmHg 93%
    23:00 +21°C° 0.6 mm 3 mps 760 mmHg 94%

    4 March, Saturday

    Time Temperature Precipitation Wind Pressure Humidity
    00:00 +21°C° 0.6 mm 3 mps 760 mmHg 95%
    01:00 +21°C° 0.6 mm 3 mps 760 mmHg 95%
    02:00 +21°C° 0.5 mm 4 mps 759 mmHg 95%
    03:00 +21°C° 0.5 mm 4 mps 759 mmHg 95%
    04:00 +21°C° 0.5 mm 4 mps 759 mmHg 95%
    05:00 +21°C° 0.3 mm 4 mps 759 mmHg 93%
    06:00 +21°C° 0.3 mm 4 mps 759 mmHg 90%
    07:00 +22°C° 0.3 mm 4 mps 760 mmHg 88%
    08:00 +23°C° 0.1 mm 4 mps 760 mmHg 82%
    09:00 +25°C° 0.1 mm 3 mps 760 mmHg 76%
    10:00 +26°C° 0.1 mm 3 mps 760 mmHg 71%
    11:00 +27°C° 0 mm 3 mps 759 mmHg 66%
    12:00 +28°C° 0 mm 2 mps 758 mmHg 62%
    13:00 +29°C° 0 mm 2 mps 758 mmHg 57%
    14:00 +28°C° 0.9 mm 3 mps 758 mmHg 65%
    15:00 +28°C° 0.9 mm 3 mps 757 mmHg 73%
    16:00 +27°C° 0.9 mm 4 mps 757 mmHg 81%
    17:00 +26°C° 2.1 mm 4 mps 757 mmHg 85%
    18:00 +23°C° 2.1 mm 4 mps 757 mmHg 89%
    19:00 +22°C° 2.1 mm 4 mps 757 mmHg 94%
    20:00 +22°C° 1.5 mm 4 mps 757 mmHg 95%
    21:00 +21°C° 1.5 mm 4 mps 757 mmHg 96%
    22:00 +21°C° 1.5 mm 4 mps 757 mmHg 97%
    23:00 +20°C° 0.8 mm 4 mps 757 mmHg 97%
    Show more